This is the latest recevied weather packets stored in our database for station/object IW1RCO-13. If no packets are shown the sender has not sent any weather packets the latest 10 day(s).
| Time | Temp. | Humidity | Pressure | Rain* | Wind** | Luminosity | Snow |
|---|---|---|---|---|---|---|---|
| 1788352472 | 27.22° C | 72% | 1018.8 hPa | - | - | - | - |
| 1788352169 | 27.78° C | 70% | 1019.7 hPa | - | - | - | - |
| 1788351872 | 26.67° C | 74% | 1019.5 hPa | - | - | - | - |
| 1788351569 | 26.67° C | 75% | 1018.9 hPa | - | - | - | - |
| 1788351272 | 27.22° C | 72% | 1019.2 hPa | - | - | - | - |
| 1788350968 | 27.22° C | 70% | 1019.3 hPa | - | - | - | - |
| 1788350671 | 26.11° C | 75% | 1019.6 hPa | - | - | - | - |
| 1788350368 | 25.56° C | 77% | 1019.1 hPa | - | - | - | - |
| 1788350071 | 26.11° C | 78% | 1019.7 hPa | - | - | - | - |
| 1788349768 | 25.56° C | 79% | 1019.3 hPa | - | - | - | - |
| 1788349471 | 25.56° C | 76% | 1019.4 hPa | - | - | - | - |
| 1788349167 | 25.56° C | 79% | 1019.9 hPa | - | - | - | - |
| 1788348871 | 23.89° C | 83% | 1019.3 hPa | - | - | - | - |
| 1788345566 | 25.56° C | 77% | 1019.9 hPa | - | - | - | - |
| 1788345269 | 25.56° C | 78% | 1019.6 hPa | - | - | - | - |
| 1788344972 | 25° C | 78% | 1019 hPa | - | - | - | - |
| 1788344669 | 25.56° C | 76% | 1019.1 hPa | - | - | - | - |
| 1788344372 | 26.11° C | 74% | 1019.7 hPa | - | - | - | - |
| 1788344068 | 26.11° C | 76% | 1019.3 hPa | - | - | - | - |
| 1788343772 | 25.56° C | 77% | 1019.6 hPa | - | - | - | - |
| 1788343468 | 25° C | 75% | 1019.1 hPa | - | - | - | - |
| 1788343171 | 25.56° C | 73% | 1019.8 hPa | - | - | - | - |
| 1788342868 | 25.56° C | 74% | 1020 hPa | - | - | - | - |
| 1788342571 | 25° C | 74% | 1019.8 hPa | - | - | - | - |
| 1788342268 | 25.56° C | 76% | 1019.7 hPa | - | - | - | - |
* Rain since midnight (hover to see other rain measurements)
** Current wind speed in m/s (hover to see current wind gust speed)